Regional Weather Roundup
Issued by NWS

Home | Current Version | Previous Version | Text Only | Print | Product List | Glossary On
Versions: 1 2 3 4 5 6 7 8 9 10 11 12 13 14 15 16 17 18 19 20 21 22 23 24 25 26 27 28 29 30 31 32 33 34 35 36 37 38 39 40 41 42 43 44 45 46 47 48 49 50
000
ASUS45 KPSR 040010
RWRAZ

ARIZONA HOURLY REGIONAL WEATHER ROUNDUP
NATIONAL WEATHER SERVICE PHOENIX AZ
500 PM MST THU SEP 03 2015

NOTE: FAIR INDICATES FEW OR NO CLOUDS BELOW 12,000 FEET WITH NO
SIGNIFICANT WEATHER AND/OR OBSTRUCTIONS TO VISIBILITY.

AZZ001>003-036-040100-
NORTHWEST ARIZONA

CITY           SKY/WX    TMP DP  RH WIND       PRES   REMARKS
BULLHEAD CITY  SUNNY    102  36  10 S22       29.65F
KINGMAN        SUNNY     91  32  12 S15G30    29.86F
6HR MIN TEMP:  88; 6HR MAX TEMP:  94;

$$

AZZ004>008-015-016-018-040100-
NORTH CENTRAL ARIZONA

CITY           SKY/WX    TMP DP  RH WIND       PRES   REMARKS
GRAND CANYON   MOSUNNY   76  37  24 SW15      30.10F
6HR MIN TEMP:  73; 6HR MAX TEMP:  79;

WILLIAMS       MOSUNNY   75  37  25 SW21G26   30.17S
PRESCOTT       PTSUNNY   80  40  23 S16G23    30.03R
6HR MIN TEMP:  80; 6HR MAX TEMP:  84;

FLAGSTAFF      SUNNY     72  44  36 SW21      30.16S
6HR MIN TEMP:  69; 6HR MAX TEMP:  74;

PAYSON         PTSUNNY   82  46  28 SW9G18    30.06S
PAGE           SUNNY     91  32  12 S10G17    29.87F
6HR MIN TEMP:  83; 6HR MAX TEMP:  92;

$$

AZZ009>014-017-040100-
NORTHEAST ARIZONA

CITY           SKY/WX    TMP DP  RH WIND       PRES   REMARKS
WINSLOW        PTSUNNY   70  58  65 E17G25    30.02S THUNDER
6HR MIN TEMP:  69; 6HR MAX TEMP:  83;

SAINT JOHNS    CLOUDY    66  51  58 S17G26    30.11R
6HR MIN TEMP:  64; 6HR MAX TEMP:  79; 6HR PCP:  0.30;

WINDOW ROCK    CLOUDY    76  43  30 W12       30.14R
6HR MIN TEMP:  74; 6HR MAX TEMP:  81;

SHOW LOW       CLOUDY    66  50  55 SE9       30.15R
$$

AZZ023-040100-
GREATER PHOENIX AREA

CITY           SKY/WX    TMP DP  RH WIND       PRES   REMARKS
PHOENIX        PTSUNNY   95  55  26 SE15      29.76S
6HR MIN TEMP:  91; 6HR MAX TEMP: 100;

BUCKEYE        MOSUNNY   93  57  29 SE7       29.74S
GLENDALE       PTSUNNY   97  59  28 E12       29.76F
LUKE AFB       MOSUNNY   98  58  26 SE13      29.73F
6HR MIN TEMP:  94; 6HR MAX TEMP: 102;

DEER VALLEY    SUNNY     96  56  26 S15G21    29.77S
6HR MIN TEMP:  92; 6HR MAX TEMP:  99;

SCOTTSDALE     SUNNY     94  58  29 SE9       29.80F
6HR MIN TEMP:  92; 6HR MAX TEMP:  98;

MESA-FALCON    PTSUNNY   91  55  29 SE12      29.79S
MESA-GATEWAY   BLWGDUST  90  57  33 S32G38    29.85R VSB 1/8
$$

AZZ027-028-040100-
SOUTHWEST MARICOPA COUNTY AND PINAL COUNTY

CITY           SKY/WX    TMP DP  RH WIND       PRES   REMARKS
CASA GRANDE    CLOUDY    73  66  78 SE25G39   29.83R
6HR MIN TEMP:  73; 6HR MAX TEMP:  95; 6HR PCP:  2.18;

GILA BEND      CLOUDY    86  68  54 SE43G54   29.74R BLWGDUST
$$

AZZ503-504-507>509-040100-
SOUTHEAST ARIZONA

CITY           SKY/WX    TMP DP  RH WIND       PRES   REMARKS
TUCSON         RAIN      70  67  90 S16       30.02F FOG
6HR MIN TEMP:  70; 6HR MAX TEMP:  92; 6HR PCP:  0.15;

DAVIS-MONTHAN  LGT RAIN  70  67  90 SE10      30.02S
6HR MIN TEMP:  69; 6HR MAX TEMP:  89; 6HR PCP:  0.23;

RYAN FIELD     PTSUNNY   72  70  94 SE14G22   30.00F
NOGALES        LGT RAIN  67  64  90 CALM      30.08S
6HR MIN TEMP:  67; 6HR MAX TEMP:  85; 6HR PCP:  0.15;

SIERRA VISTA   LGT RAIN  65  62  90 W10       30.13R
6HR MIN TEMP:  65; 6HR MAX TEMP:  80; 6HR PCP:  0.04;

DOUGLAS        CLOUDY    72  60  66 SE7       30.06F
6HR MIN TEMP:  71; 6HR MAX TEMP:  81; 6HR PCP: TRACE;

SAFFORD        CLOUDY    80  60  50 N6        29.93S
6HR MIN TEMP:  79; 6HR MAX TEMP:  88; 6HR PCP: TRACE;

$$

AZZ020-021-025-026-031-040100-
SOUTHWEST ARIZONA

CITY           SKY/WX    TMP DP  RH WIND       PRES   REMARKS
YUMA           MOSUNNY  105  43  12 S13       29.65F HX 100
6HR MIN TEMP:  94; 6HR MAX TEMP: 106;

$$

CAZ031-033-041-043-047-048-061-040100-
SOUTHERN CALIFORNIA

CITY           SKY/WX    TMP DP  RH WIND       PRES   REMARKS
DOWNTOWN L.A.  SUNNY     75  57  53 VRB3      29.82F
6HR MIN TEMP:  73; 6HR MAX TEMP:  80;

L.A. AIRPORT   MOSUNNY   72  58  61 W13       29.83F
6HR MIN TEMP:  71; 6HR MAX TEMP:  75;

SAN DIEGO      MOSUNNY   73  57  57 W7        29.86F
6HR MIN TEMP:  72; 6HR MAX TEMP:  77;

BURBANK        SUNNY     76  56  49 S10       29.82F
6HR MIN TEMP:  69; 6HR MAX TEMP:  81;

ONTARIO        SUNNY     81  54  39 W14       29.81F
6HR MIN TEMP:  68; 6HR MAX TEMP:  85;

RIVERSIDE      SUNNY     83  55  38 W10G20    29.80F
6HR MIN TEMP:  69; 6HR MAX TEMP:  86;

PALM SPRINGS   SUNNY     99  43  14 NW20      29.68F
6HR MIN TEMP:  92; 6HR MAX TEMP: 102;

EL CENTRO NAS  MOSUNNY  104  35   9 SW17      29.65F
6HR MIN TEMP:  94; 6HR MAX TEMP: 104;

IMPERIAL       SUNNY    104  42  12 W10       29.62F
6HR MIN TEMP:  93; 6HR MAX TEMP: 105;

BLYTHE         SUNNY    104  33   8 SW14      29.65S
6HR MIN TEMP:  95; 6HR MAX TEMP: 105;

NEEDLES        SUNNY    103  37  10 SW16      29.67F
6HR MIN TEMP:  98; 6HR MAX TEMP: 105;

$$

NVZ020-UTZ003-040100-
SOUTHERN NEVADA-UTAH

CITY           SKY/WX    TMP DP  RH WIND       PRES   REMARKS
LAS VEGAS      MOSUNNY   98  30   9 SW14G24   29.67F
6HR MIN TEMP:  92; 6HR MAX TEMP:  99;

SALT LAKE CITY PTSUNNY   89  30  12 S17G29    29.75F
6HR MIN TEMP:  83; 6HR MAX TEMP:  89;

$$

NMZ009-TXZ055-040100-
NEW MEXICO-WEST TEXAS

CITY           SKY/WX    TMP DP  RH WIND       PRES   REMARKS
ALBUQUERQUE    MOSUNNY   86  41  20 CALM      30.01F
6HR MIN TEMP:  79; 6HR MAX TEMP:  88;

EL PASO        CLOUDY    87  49  26 W14       29.95F
6HR MIN TEMP:  86; 6HR MAX TEMP:  92;

$$


........................KEY........................
SKY/WX - SKY CONDITION/WEATHER
TMP    - TEMPERATURE IN FAHRENHEIT
DP     - DEW POINT IN FAHRENHEIT
RH     - RELATIVE HUMIDITY IN PERCENT
WIND   - DIRECTION AND SPEED IN MILES PER HOUR (MPH)
VRB    - VARIABLE WIND DIRECTION
PRES   - MEAN SEA LEVEL PRESSURE IN INCHES OF MERCURY
         F - FALLING PRESSURE   R - RISING PRESSURE
         S - STEADY PRESSURE
VSB    - VISIBILITY IN MILES
HX     - HEAT INDEX IN FAHRENHEIT
WCI    - WIND CHILL INDEX IN FAHRENHEIT
TC     - TEMPERATURE IN CELSIUS WHICH IS ALSO KNOWN AS
         TEMPERATURE IN CENTIGRADE
AFB    - AIR FORCE BASE
         LUKE AFB IS LUKE AIR FORCE BASE
         DAVIS-MONTHAN IS DAVIS-MONTHAN AIR FORCE BASE
NAS    - NAVAL AIR STATION
         EL CENTRO NAS IS EL CENTRO NAVAL AIR STATION
N/A    - NOT AVAILABLE




USA.gov is the U.S. government's official web portal to all federal, state and local government web resources and services.